Regional Weather Roundup
Issued by NWS

Home | Current Version | Previous Version | Text Only | Print | Product List | Glossary On
Versions: 1 2 3 4 5 6 7 8 9 10 11 12 13 14 15 16 17 18 19 20 21 22 23 24 25 26 27 28 29 30 31 32 33 34 35 36 37 38 39 40 41 42 43 44 45 46 47 48 49 50
000
ASUS46 KPQR 121410
RWROR

OREGON REGIONAL WEATHER ROUNDUP
NATIONAL WEATHER SERVICE PORTLAND OR
600 AM PST FRI FEB 12 2016

NOTE: "FAIR" INDICATES FEW OR NO CLOUDS BELOW 12,000 FEET WITH
NO SIGNIFICANT WEATHER AND/OR OBSTRUCTIONS TO VISIBILITY.

ORZ001>013-121500-
NORTHWEST OREGON


CITY           SKY/WX    TMP DP  RH WIND       PRES   REMARKS
ASTORIA        LGT RAIN  55  53  93 S10G21    30.08S FOG
NEWPORT        CLOUDY    55  52  88 S16G24    30.16S FOG
PORTLAND       CLOUDY    50  43  77 SE17      30.15R
VANCOUVER WA   CLOUDY    48  43  82 SE7       30.14F
SCAPPOOSE      CLOUDY    50  46  86 CALM      30.13F
HILLSBORO      CLOUDY    51  50  96 E6        30.13F FOG
AURORA         FOG       50  50 100 CALM      30.15S VSB 1/4
MCMINNVILLE    CLOUDY    51  49  92 CALM      30.14F FOG
SALEM          CLOUDY    51  49  92 S8        30.14S
CORVALLIS      CLOUDY    52  48  87 CALM      30.16F
EUGENE         CLOUDY    47  45  93 S6        30.16S
$$

ORZ021-028-121500-
SOUTHWEST OREGON


CITY           SKY/WX    TMP DP  RH WIND       PRES   REMARKS
NORTH BEND     CLOUDY    52  52 100 S5        30.17R
BROOKINGS      CLOUDY    54  53  97 CALM      30.21S
ROSEBURG       CLOUDY    49  47  93 CALM      30.18R
SEXTON SUMMIT  CLOUDY    43  39  86 S10       30.19S
MEDFORD        CLOUDY    45  41  86 CALM      30.22R
$$

ORZ014>016-041-121500-
COLUMBIA GORGE


CITY           SKY/WX    TMP DP  RH WIND       PRES   REMARKS
TROUTDALE      CLOUDY    50  42  74 E25G31    30.15S
THE DALLES     CLOUDY    44  42  93 CALM      30.24R FOG
$$

ORZ029>031-041-044-049-050-061>064-502-503-505>511-121500-
EASTERN OREGON


CITY           SKY/WX    TMP DP  RH WIND       PRES   REMARKS
REDMOND        CLOUDY    36  34  92 CALM      30.18S
BEND           CLOUDY    39  34  81 SE9       30.19R WCI  33
PRINEVILLE     MOCLDY    34  34 100 CALM      30.19S
KLAMATH FALLS  MOCLDY    38  31  76 CALM      30.22R
LAKEVIEW       PTCLDY    34  28  80 SE5       30.29R WCI  30
HERMISTON      CLOUDY    42  40  92 NW3       30.21F
PENDLETON      CLOUDY    40  39  97 CALM      30.19F FOG
JOHN DAY       PTCLDY    38  32  78 SE10G16   30.22R WCI  31
MEACHAM        PTCLDY    36  30  79 CALM      30.18S
LA GRANDE      PTCLDY    43  28  56 S18G24    30.23S
BAKER CITY     MOCLDY    28  26  92 W3        30.29S
BURNS          CLOUDY    19  16  88 CALM      30.28R
ROME             N/A     29  26  89 CALM      30.28S
ONTARIO        FOG       28  26  92 CALM      30.38R VSB 1/4
$$



USA.gov is the U.S. government's official web portal to all federal, state and local government web resources and services.